Location: ??????
(55.4348°N, 39.2112°E)
Time: 08:54:42
(UTC+00:00)

Cosmos 1340 Rocket - Pass Details

Date: 14 April 2024
Orbit: 508 x 543 km, 81.2° (Epoch: 19 May)

Event Time Altitude Azimuth Distance (km) Brightness Sun altitude
Exits shadow 00:31:34 - 164° (SSE) 2,336 5.8 -14.2°
Reaches altitude 10° 00:33:07 10° 157° (SSE) 1,745 5.2 -14.0°
Maximum altitude 00:36:32 32° 94° (E) 920 4.4 -13.7°
Drops below altitude 10° 00:40:01 10° 30° (NNE) 1,779 6.6 -13.3°
Sets 00:42:20 0° 21° (NNE) 2,681 7.5 -13.0°
